Date,TemperatureHighF,TemperatureAvgF,TemperatureLowF,DewpointHighF,DewpointAvgF,DewpointLowF,HumidityHigh,HumidityAvg,HumidityLow,PressureMaxIn,PressureMinIn,WindSpeedMaxMPH,WindSpeedAvgMPH,GustSpeedMaxMPH,PrecipitationSumIn
2013-3-1,50,38,29,-100,-100,-100,0,0,100,0.00,40.00,0,-999,0,0.01
2013-3-2,57,41,26,-100,-100,-100,0,0,100,0.00,40.00,0,-999,0,0.00
2013-3-3,45,38,30,-100,-100,-100,0,0,100,0.00,40.00,0,-999,0,0.00
2013-3-4,34,33,32,-100,-100,-100,0,0,100,0.00,40.00,0,-999,0,0.01
2013-3-5,48,32,17,-100,-100,-100,0,0,100,0.00,40.00,0,-999,0,0.00
2013-3-6,50,36,25,-100,-100,-100,0,0,100,0.00,40.00,0,-999,0,0.00
2013-3-7,52,38,26,-100,-100,-100,0,0,100,0.00,40.00,0,-999,0,0.00
2013-3-8,34,33,30,-100,-100,-100,0,0,100,0.00,40.00,0,-999,0,0.00
2013-3-9,36,28,21,-100,-100,-100,0,0,100,0.00,40.00,0,-999,0,0.02
2013-3-10,46,35,18,-100,-100,-100,0,0,100,0.00,40.00,0,-999,0,0.01
2013-3-11,51,34,20,-100,-100,-100,0,0,100,0.00,40.00,0,-999,0,0.00
2013-3-12,53,37,25,-100,-100,-100,0,0,100,0.00,40.00,0,-999,0,0.00
2013-3-13,56,40,27,-100,-100,-100,0,0,100,0.00,40.00,0,-999,0,0.00
2013-3-14,64,42,31,-100,-100,-100,0,0,100,0.00,40.00,0,-999,0,0.00
2013-3-15,59,44,32,-100,-100,-100,0,0,100,0.00,40.00,0,-999,0,0.00
2013-3-16,53,40,31,-100,-100,-100,0,0,100,0.00,40.00,0,-999,0,0.00
2013-3-17,50,37,28,-100,-100,-100,0,0,100,0.00,40.00,0,-999,0,0.00
2013-3-18,45,36,27,-100,-100,-100,0,0,100,0.00,40.00,0,-999,0,0.00
2013-3-19,48,36,28,-100,-100,-100,0,0,100,0.00,40.00,0,-999,0,0.00
2013-3-20,44,32,23,-100,-100,-100,0,0,100,0.00,40.00,0,-999,0,0.00
2013-3-21,45,36,25,-100,-100,-100,0,0,100,0.00,40.00,0,-999,0,0.01
2013-3-22,44,33,21,-100,-100,-100,0,0,100,0.00,40.00,0,-999,0,0.00
2013-3-23,26,19,11,-100,-100,-100,0,0,100,0.00,40.00,0,-999,0,0.00
2013-3-24,36,19,3,-100,-100,-100,0,0,100,0.00,40.00,0,-999,0,0.02
2013-3-25,43,24,6,-100,-100,-100,0,0,100,0.00,40.00,0,-999,0,0.01
2013-3-26,48,35,23,-100,-100,-100,0,0,100,0.00,40.00,0,-999,0,0.01
2013-3-27,53,42,32,-100,-100,-100,0,0,100,0.00,40.00,0,-999,0,0.01
2013-3-28,55,42,32,-100,-100,-100,0,0,100,0.00,40.00,0,-999,0,0.00
2013-3-29,54,42,33,-100,-100,-100,0,0,100,0.00,40.00,0,-999,0,0.00
2013-3-30,54,42,31,-100,-100,-100,0,0,100,0.00,40.00,0,-999,0,0.00
2013-3-31,58,43,31,-100,-100,-100,0,0,100,0.00,40.00,0,-999,0,0.01